owner,sensor,date,latitude,longitude,vertical_datum,sea_water_practical_salinity,qcFlag 
DISL,ioos:station:DISL:DISL:1,2019-07-01T00:00:00Z,30.2513,-88.0778,2.194,14.99,11111222 
DISL,ioos:station:DISL:DISL:1,2019-07-01T00:30:00Z,30.2513,-88.0778,2.2,15.4,11111222 
DISL,ioos:station:DISL:DISL:1,2019-07-01T01:00:00Z,30.2513,-88.0778,2.192,16.32,11111222 
DISL,ioos:station:DISL:DISL:1,2019-07-01T01:30:00Z,30.2513,-88.0778,2.2,16.4,11111222 
DISL,ioos:station:DISL:DISL:1,2019-07-01T02:00:00Z,30.2513,-88.0778,2.217,16.15,11111222 
DISL,ioos:station:DISL:DISL:1,2019-07-01T02:30:00Z,30.2513,-88.0778,2.2,16.7,11111222 
DISL,ioos:station:DISL:DISL:1,2019-07-01T03:00:00Z,30.2513,-88.0778,2.231,16.54,11111222 
DISL,ioos:station:DISL:DISL:1,2019-07-01T03:30:00Z,30.2513,-88.0778,2.2,16.4,11111222 
DISL,ioos:station:DISL:DISL:1,2019-07-01T04:00:00Z,30.2513,-88.0778,2.26,16.59,11111222 
DISL,ioos:station:DISL:DISL:1,2019-07-01T04:30:00Z,30.2513,-88.0778,2.3,16.2,11111222 
DISL,ioos:station:DISL:DISL:1,2019-07-01T05:00:00Z,30.2513,-88.0778,2.299,15.77,11111222 
DISL,ioos:station:DISL:DISL:1,2019-07-01T05:30:00Z,30.2513,-88.0778,2.3,15.3,11111222 
DISL,ioos:station:DISL:DISL:1,2019-07-01T06:00:00Z,30.2513,-88.0778,2.375,13.96,11111222 
DISL,ioos:station:DISL:DISL:1,2019-07-01T06:30:00Z,30.2513,-88.0778,2.4,13.3,11111222 
DISL,ioos:station:DISL:DISL:1,2019-07-01T07:00:00Z,30.2513,-88.0778,2.418,13.18,11111222 
DISL,ioos:station:DISL:DISL:1,2019-07-01T07:30:00Z,30.2513,-88.0778,2.4,13.0,11111222 
DISL,ioos:station:DISL:DISL:1,2019-07-01T08:00:00Z,30.2513,-88.0778,2.473,13.05,11111222 
DISL,ioos:station:DISL:DISL:1,2019-07-01T08:30:00Z,30.2513,-88.0778,2.5,13.1,11111222 
DISL,ioos:station:DISL:DISL:1,2019-07-01T09:00:00Z,30.2513,-88.0778,2.531,14.39,11111222 
DISL,ioos:station:DISL:DISL:1,2019-07-01T09:30:00Z,30.2513,-88.0778,2.6,17.3,11111222 
DISL,ioos:station:DISL:DISL:1,2019-07-01T10:00:00Z,30.2513,-88.0778,2.583,17.83,11111222 
DISL,ioos:station:DISL:DISL:1,2019-07-01T10:30:00Z,30.2513,-88.0778,2.6,18.3,11111222 
DISL,ioos:station:DISL:DISL:1,2019-07-01T11:00:00Z,30.2513,-88.0778,2.637,17.96,11111222 
DISL,ioos:station:DISL:DISL:1,2019-07-01T11:30:00Z,30.2513,-88.0778,2.7,17.6,11111222 
DISL,ioos:station:DISL:DISL:1,2019-07-01T12:00:00Z,30.2513,-88.0778,2.7,17.5,11111222 
DISL,ioos:station:DISL:DISL:1,2019-07-01T12:30:00Z,30.2513,-88.0778,2.7,15.8,11111222 
DISL,ioos:station:DISL:DISL:1,2019-07-01T13:00:00Z,30.2513,-88.0778,2.723,13.74,11111222 
DISL,ioos:station:DISL:DISL:1,2019-07-01T13:30:00Z,30.2513,-88.0778,2.7,13.4,11111222 
DISL,ioos:station:DISL:DISL:1,2019-07-01T14:00:00Z,30.2513,-88.0778,2.726,13.51,11111222 
DISL,ioos:station:DISL:DISL:1,2019-07-01T14:30:00Z,30.2513,-88.0778,2.7,13.6,11111222 
DISL,ioos:station:DISL:DISL:1,2019-07-01T15:00:00Z,30.2513,-88.0778,2.7,13.6,11111222 
DISL,ioos:station:DISL:DISL:1,2019-07-01T15:30:00Z,30.2513,-88.0778,2.7,13.6,11111222 
DISL,ioos:station:DISL:DISL:1,2019-07-01T16:00:00Z,30.2513,-88.0778,2.7,13.7,11111222 
DISL,ioos:station:DISL:DISL:1,2019-07-01T16:30:00Z,30.2513,-88.0778,2.6,13.7,11111222 
DISL,ioos:station:DISL:DISL:1,2019-07-01T17:00:00Z,30.2513,-88.0778,2.611,13.69,11111222 
DISL,ioos:station:DISL:DISL:1,2019-07-01T17:30:00Z,30.2513,-88.0778,2.6,13.8,11111222 
DISL,ioos:station:DISL:DISL:1,2019-07-01T18:00:00Z,30.2513,-88.0778,2.556,13.77,11111222 
DISL,ioos:station:DISL:DISL:1,2019-07-01T18:30:00Z,30.2513,-88.0778,2.5,13.8,11111222 
DISL,ioos:station:DISL:DISL:1,2019-07-01T19:00:00Z,30.2513,-88.0778,2.461,13.8,11111222 
DISL,ioos:station:DISL:DISL:1,2019-07-01T19:30:00Z,30.2513,-88.0778,2.4,13.9,11111222 
DISL,ioos:station:DISL:DISL:1,2019-07-01T20:00:00Z,30.2513,-88.0778,2.376,13.87,11111222 
DISL,ioos:station:DISL:DISL:1,2019-07-01T20:30:00Z,30.2513,-88.0778,2.3,14.2,11111222 
DISL,ioos:station:DISL:DISL:1,2019-07-01T21:00:00Z,30.2513,-88.0778,2.275,14.61,11111222 
DISL,ioos:station:DISL:DISL:1,2019-07-01T21:30:00Z,30.2513,-88.0778,2.3,15.1,11111222 
DISL,ioos:station:DISL:DISL:1,2019-07-01T22:00:00Z,30.2513,-88.0778,2.218,15.01,11111222 
DISL,ioos:station:DISL:DISL:1,2019-07-01T22:30:00Z,30.2513,-88.0778,2.2,14.8,11111222 
DISL,ioos:station:DISL:DISL:1,2019-07-01T23:00:00Z,30.2513,-88.0778,2.173,14.65,11111222 
DISL,ioos:station:DISL:DISL:1,2019-07-01T23:30:00Z,30.2513,-88.0778,2.2,14.5,11111222 
DISL,ioos:station:DISL:DISL:1,2019-07-02T00:00:00Z,30.2513,-88.0778,2.133,14.34,11111222 
DISL,ioos:station:DISL:DISL:1,2019-07-02T00:30:00Z,30.2513,-88.0778,2.1,15.7,11111222 
DISL,ioos:station:DISL:DISL:1,2019-07-02T01:00:00Z,30.2513,-88.0778,2.097,15.93,11111222 
DISL,ioos:station:DISL:DISL:1,2019-07-02T01:30:00Z,30.2513,-88.0778,2.1,15.6,11111222 
DISL,ioos:station:DISL:DISL:1,2019-07-02T02:00:00Z,30.2513,-88.0778,2.115,15.64,11111222 
DISL,ioos:station:DISL:DISL:1,2019-07-02T02:30:00Z,30.2513,-88.0778,2.1,15.7,11111222 
DISL,ioos:station:DISL:DISL:1,2019-07-02T03:00:00Z,30.2513,-88.0778,2.132,15.78,11111222 
DISL,ioos:station:DISL:DISL:1,2019-07-02T03:30:00Z,30.2513,-88.0778,2.1,15.7,11111222 
DISL,ioos:station:DISL:DISL:1,2019-07-02T04:00:00Z,30.2513,-88.0778,2.141,17.63,11111222 
DISL,ioos:station:DISL:DISL:1,2019-07-02T04:30:00Z,30.2513,-88.0778,2.1,18.0,11111222 
DISL,ioos:station:DISL:DISL:1,2019-07-02T05:00:00Z,30.2513,-88.0778,2.156,17.06,11111222 
DISL,ioos:station:DISL:DISL:1,2019-07-02T05:30:00Z,30.2513,-88.0778,2.2,15.7,11111222 
DISL,ioos:station:DISL:DISL:1,2019-07-02T06:00:00Z,30.2513,-88.0778,2.199,15.21,11111222 
DISL,ioos:station:DISL:DISL:1,2019-07-02T06:30:00Z,30.2513,-88.0778,2.2,14.8,11111222 
DISL,ioos:station:DISL:DISL:1,2019-07-02T07:00:00Z,30.2513,-88.0778,2.252,14.62,11111222 
DISL,ioos:station:DISL:DISL:1,2019-07-02T07:30:00Z,30.2513,-88.0778,2.3,14.4,11111222 
DISL,ioos:station:DISL:DISL:1,2019-07-02T08:00:00Z,30.2513,-88.0778,2.303,14.28,11111222 
DISL,ioos:station:DISL:DISL:1,2019-07-02T08:30:00Z,30.2513,-88.0778,2.4,14.2,11111222 
DISL,ioos:station:DISL:DISL:1,2019-07-02T09:00:00Z,30.2513,-88.0778,2.36,14.16,11111222 
DISL,ioos:station:DISL:DISL:1,2019-07-02T09:30:00Z,30.2513,-88.0778,2.4,14.2,11111222 
DISL,ioos:station:DISL:DISL:1,2019-07-02T10:00:00Z,30.2513,-88.0778,2.414,14.26,11111222 
DISL,ioos:station:DISL:DISL:1,2019-07-02T10:30:00Z,30.2513,-88.0778,2.4,14.2,11111222 
DISL,ioos:station:DISL:DISL:1,2019-07-02T11:00:00Z,30.2513,-88.0778,2.472,14.21,11111222 
DISL,ioos:station:DISL:DISL:1,2019-07-02T11:30:00Z,30.2513,-88.0778,2.5,14.2,11111222 
DISL,ioos:station:DISL:DISL:1,2019-07-02T12:00:00Z,30.2513,-88.0778,2.545,14.24,11111222 
DISL,ioos:station:DISL:DISL:1,2019-07-02T12:30:00Z,30.2513,-88.0778,2.6,14.3,11111222 
DISL,ioos:station:DISL:DISL:1,2019-07-02T13:00:00Z,30.2513,-88.0778,2.611,14.31,11111222 
DISL,ioos:station:DISL:DISL:1,2019-07-02T13:30:00Z,30.2513,-88.0778,2.6,14.4,11111222 
DISL,ioos:station:DISL:DISL:1,2019-07-02T14:00:00Z,30.2513,-88.0778,2.642,14.37,11111222 
DISL,ioos:station:DISL:DISL:1,2019-07-02T14:30:00Z,30.2513,-88.0778,2.6,14.4,11111222 
DISL,ioos:station:DISL:DISL:1,2019-07-02T15:00:00Z,30.2513,-88.0778,2.644,14.43,11111222 
DISL,ioos:station:DISL:DISL:1,2019-07-02T15:30:00Z,30.2513,-88.0778,2.6,14.5,11111222 
DISL,ioos:station:DISL:DISL:1,2019-07-02T16:00:00Z,30.2513,-88.0778,2.629,14.49,11111222 
DISL,ioos:station:DISL:DISL:1,2019-07-02T16:30:00Z,30.2513,-88.0778,2.6,14.5,11111222 
DISL,ioos:station:DISL:DISL:1,2019-07-02T17:00:00Z,30.2513,-88.0778,2.604,14.54,11111222 
DISL,ioos:station:DISL:DISL:1,2019-07-02T17:30:00Z,30.2513,-88.0778,2.6,14.5,11111222 
DISL,ioos:station:DISL:DISL:1,2019-07-02T18:00:00Z,30.2513,-88.0778,2.557,14.56,11111222 
DISL,ioos:station:DISL:DISL:1,2019-07-02T18:30:00Z,30.2513,-88.0778,2.5,14.6,11111222 
DISL,ioos:station:DISL:DISL:1,2019-07-02T19:00:00Z,30.2513,-88.0778,2.48,14.58,11111222 
DISL,ioos:station:DISL:DISL:1,2019-07-02T19:30:00Z,30.2513,-88.0778,2.4,14.6,11111222 
DISL,ioos:station:DISL:DISL:1,2019-07-02T20:00:00Z,30.2513,-88.0778,2.388,14.59,11111222 
DISL,ioos:station:DISL:DISL:1,2019-07-02T20:30:00Z,30.2513,-88.0778,2.3,14.6,11111222 
DISL,ioos:station:DISL:DISL:1,2019-07-02T21:00:00Z,30.2513,-88.0778,2.312,14.6,11111222 
DISL,ioos:station:DISL:DISL:1,2019-07-02T21:30:00Z,30.2513,-88.0778,2.3,14.6,11111222 
DISL,ioos:station:DISL:DISL:1,2019-07-02T22:00:00Z,30.2513,-88.0778,2.248,14.58,11111222 
DISL,ioos:station:DISL:DISL:1,2019-07-02T22:30:00Z,30.2513,-88.0778,2.2,14.6,11111222 
DISL,ioos:station:DISL:DISL:1,2019-07-02T23:00:00Z,30.2513,-88.0778,2.2,15.05,11111222 
DISL,ioos:station:DISL:DISL:1,2019-07-02T23:30:00Z,30.2513,-88.0778,2.2,15.4,11111222 
DISL,ioos:station:DISL:DISL:1,2019-07-03T00:00:00Z,30.2513,-88.0778,2.149,15.83,11111222 
DISL,ioos:station:DISL:DISL:1,2019-07-03T00:30:00Z,30.2513,-88.0778,2.1,16.3,11111222 
DISL,ioos:station:DISL:DISL:1,2019-07-03T01:00:00Z,30.2513,-88.0778,2.116,16.68,11111222 
DISL,ioos:station:DISL:DISL:1,2019-07-03T01:30:00Z,30.2513,-88.0778,2.1,17.0,11111222 
DISL,ioos:station:DISL:DISL:1,2019-07-03T02:00:00Z,30.2513,-88.0778,2.084,17.04,11111222 
DISL,ioos:station:DISL:DISL:1,2019-07-03T02:30:00Z,30.2513,-88.0778,2.1,17.0,11111222 
DISL,ioos:station:DISL:DISL:1,2019-07-03T03:00:00Z,30.2513,-88.0778,2.068,17.28,11111222 
DISL,ioos:station:DISL:DISL:1,2019-07-03T03:30:00Z,30.2513,-88.0778,2.0,17.4,11111222 
DISL,ioos:station:DISL:DISL:1,2019-07-03T04:00:00Z,30.2513,-88.0778,2.072,17.46,11111222 
DISL,ioos:station:DISL:DISL:1,2019-07-03T04:30:00Z,30.2513,-88.0778,2.1,17.4,11111222 
DISL,ioos:station:DISL:DISL:1,2019-07-03T05:00:00Z,30.2513,-88.0778,2.1,17.41,11111222 
DISL,ioos:station:DISL:DISL:1,2019-07-03T05:30:00Z,30.2513,-88.0778,2.1,17.4,11111222 
DISL,ioos:station:DISL:DISL:1,2019-07-03T06:00:00Z,30.2513,-88.0778,2.145,17.32,11111222 
DISL,ioos:station:DISL:DISL:1,2019-07-03T06:30:00Z,30.2513,-88.0778,2.2,17.3,11111222 
DISL,ioos:station:DISL:DISL:1,2019-07-03T07:00:00Z,30.2513,-88.0778,2.185,17.04,11111222 
DISL,ioos:station:DISL:DISL:1,2019-07-03T07:30:00Z,30.2513,-88.0778,2.2,16.1,11111222 
DISL,ioos:station:DISL:DISL:1,2019-07-03T08:00:00Z,30.2513,-88.0778,2.222,15.41,11111222 
DISL,ioos:station:DISL:DISL:1,2019-07-03T08:30:00Z,30.2513,-88.0778,2.2,15.0,11111222 
DISL,ioos:station:DISL:DISL:1,2019-07-03T09:00:00Z,30.2513,-88.0778,2.284,14.9,11111222 
DISL,ioos:station:DISL:DISL:1,2019-07-03T09:30:00Z,30.2513,-88.0778,2.3,14.9,11111222 
DISL,ioos:station:DISL:DISL:1,2019-07-03T10:00:00Z,30.2513,-88.0778,2.35,15.34,11111222 
DISL,ioos:station:DISL:DISL:1,2019-07-03T10:30:00Z,30.2513,-88.0778,2.4,16.6,11111222 
DISL,ioos:station:DISL:DISL:1,2019-07-03T11:00:00Z,30.2513,-88.0778,2.415,16.46,11111222 
DISL,ioos:station:DISL:DISL:1,2019-07-03T11:30:00Z,30.2513,-88.0778,2.5,15.5,11111222 
DISL,ioos:station:DISL:DISL:1,2019-07-03T12:00:00Z,30.2513,-88.0778,2.482,14.8,11111222 
DISL,ioos:station:DISL:DISL:1,2019-07-03T12:30:00Z,30.2513,-88.0778,2.5,14.8,11111222 
DISL,ioos:station:DISL:DISL:1,2019-07-03T13:00:00Z,30.2513,-88.0778,2.553,14.78,11111222 
DISL,ioos:station:DISL:DISL:1,2019-07-03T13:30:00Z,30.2513,-88.0778,2.6,15.8,11111222 
DISL,ioos:station:DISL:DISL:1,2019-07-03T14:00:00Z,30.2513,-88.0778,2.605,14.75,11111222 
DISL,ioos:station:DISL:DISL:1,2019-07-03T14:30:00Z,30.2513,-88.0778,2.6,15.9,11111222 
DISL,ioos:station:DISL:DISL:1,2019-07-03T15:00:00Z,30.2513,-88.0778,2.635,15.02,11111222 
DISL,ioos:station:DISL:DISL:1,2019-07-03T15:30:00Z,30.2513,-88.0778,2.6,16.8,11111222 
DISL,ioos:station:DISL:DISL:1,2019-07-03T16:00:00Z,30.2513,-88.0778,2.652,16.91,11111222 
DISL,ioos:station:DISL:DISL:1,2019-07-03T16:30:00Z,30.2513,-88.0778,2.7,14.9,11111222 
DISL,ioos:station:DISL:DISL:1,2019-07-03T17:00:00Z,30.2513,-88.0778,2.641,14.86,11111222 
DISL,ioos:station:DISL:DISL:1,2019-07-03T17:30:00Z,30.2513,-88.0778,2.6,14.9,11111222 
DISL,ioos:station:DISL:DISL:1,2019-07-03T18:00:00Z,30.2513,-88.0778,2.603,14.92,11111222 
DISL,ioos:station:DISL:DISL:1,2019-07-03T18:30:00Z,30.2513,-88.0778,2.6,14.9,11111222 
DISL,ioos:station:DISL:DISL:1,2019-07-03T19:00:00Z,30.2513,-88.0778,2.527,15.07,11111222 
DISL,ioos:station:DISL:DISL:1,2019-07-03T19:30:00Z,30.2513,-88.0778,2.5,15.1,11111222 
DISL,ioos:station:DISL:DISL:1,2019-07-03T20:00:00Z,30.2513,-88.0778,2.445,15.12,11111222 
DISL,ioos:station:DISL:DISL:1,2019-07-03T20:30:00Z,30.2513,-88.0778,2.4,15.2,11111222 
DISL,ioos:station:DISL:DISL:1,2019-07-03T21:00:00Z,30.2513,-88.0778,2.349,15.23,11111222 
DISL,ioos:station:DISL:DISL:1,2019-07-03T21:30:00Z,30.2513,-88.0778,2.3,15.2,11111222 
DISL,ioos:station:DISL:DISL:1,2019-07-03T22:00:00Z,30.2513,-88.0778,2.285,15.23,11111222 
DISL,ioos:station:DISL:DISL:1,2019-07-03T22:30:00Z,30.2513,-88.0778,2.3,15.3,11111222 
DISL,ioos:station:DISL:DISL:1,2019-07-03T23:00:00Z,30.2513,-88.0778,2.21,15.58,11111222 
DISL,ioos:station:DISL:DISL:1,2019-07-03T23:30:00Z,30.2513,-88.0778,2.2,16.5,11111222 
DISL,ioos:station:DISL:DISL:1,2019-07-04T00:00:00Z,30.2513,-88.0778,2.158,16.7,11111222 
DISL,ioos:station:DISL:DISL:1,2019-07-04T00:30:00Z,30.2513,-88.0778,2.1,17.1,11111222 
DISL,ioos:station:DISL:DISL:1,2019-07-04T01:00:00Z,30.2513,-88.0778,2.106,17.57,11111222 
DISL,ioos:station:DISL:DISL:1,2019-07-04T01:30:00Z,30.2513,-88.0778,2.1,17.7,11111222 
DISL,ioos:station:DISL:DISL:1,2019-07-04T02:00:00Z,30.2513,-88.0778,2.063,17.81,11111222 
DISL,ioos:station:DISL:DISL:1,2019-07-04T02:30:00Z,30.2513,-88.0778,2.0,17.8,11111222 
DISL,ioos:station:DISL:DISL:1,2019-07-04T03:00:00Z,30.2513,-88.0778,2.041,17.86,11111222 
DISL,ioos:station:DISL:DISL:1,2019-07-04T03:30:00Z,30.2513,-88.0778,2.0,17.9,11111222 
DISL,ioos:station:DISL:DISL:1,2019-07-04T04:00:00Z,30.2513,-88.0778,2.035,17.84,11111222 
DISL,ioos:station:DISL:DISL:1,2019-07-04T04:30:00Z,30.2513,-88.0778,2.0,17.7,11111222 
DISL,ioos:station:DISL:DISL:1,2019-07-04T05:00:00Z,30.2513,-88.0778,2.033,17.5,11111222 
DISL,ioos:station:DISL:DISL:1,2019-07-04T05:30:00Z,30.2513,-88.0778,2.0,17.6,11111222 
DISL,ioos:station:DISL:DISL:1,2019-07-04T06:00:00Z,30.2513,-88.0778,2.063,17.65,11111222 
DISL,ioos:station:DISL:DISL:1,2019-07-04T06:30:00Z,30.2513,-88.0778,2.1,17.6,11111222 
DISL,ioos:station:DISL:DISL:1,2019-07-04T07:00:00Z,30.2513,-88.0778,2.096,17.56,11111222 
DISL,ioos:station:DISL:DISL:1,2019-07-04T07:30:00Z,30.2513,-88.0778,2.1,17.6,11111222 
DISL,ioos:station:DISL:DISL:1,2019-07-04T08:00:00Z,30.2513,-88.0778,2.134,17.33,11111222 
DISL,ioos:station:DISL:DISL:1,2019-07-04T08:30:00Z,30.2513,-88.0778,2.2,17.0,11111222 
DISL,ioos:station:DISL:DISL:1,2019-07-04T09:00:00Z,30.2513,-88.0778,2.19,16.47,11111222 
DISL,ioos:station:DISL:DISL:1,2019-07-04T09:30:00Z,30.2513,-88.0778,2.2,16.2,11111222 
DISL,ioos:station:DISL:DISL:1,2019-07-04T10:00:00Z,30.2513,-88.0778,2.275,15.98,11111222 
DISL,ioos:station:DISL:DISL:1,2019-07-04T10:30:00Z,30.2513,-88.0778,2.3,15.8,11111222 
DISL,ioos:station:DISL:DISL:1,2019-07-04T11:00:00Z,30.2513,-88.0778,2.34,15.72,11111222 
DISL,ioos:station:DISL:DISL:1,2019-07-04T11:30:00Z,30.2513,-88.0778,2.4,15.6,11111222 
DISL,ioos:station:DISL:DISL:1,2019-07-04T12:00:00Z,30.2513,-88.0778,2.4,15.55,11111222 
DISL,ioos:station:DISL:DISL:1,2019-07-04T12:30:00Z,30.2513,-88.0778,2.4,18.2,11111222 
DISL,ioos:station:DISL:DISL:1,2019-07-04T13:00:00Z,30.2513,-88.0778,2.463,18.55,11111222 
DISL,ioos:station:DISL:DISL:1,2019-07-04T13:30:00Z,30.2513,-88.0778,2.5,19.2,11111222 
DISL,ioos:station:DISL:DISL:1,2019-07-04T14:00:00Z,30.2513,-88.0778,2.537,19.85,11111222 
DISL,ioos:station:DISL:DISL:1,2019-07-04T14:30:00Z,30.2513,-88.0778,2.6,19.3,11111222 
DISL,ioos:station:DISL:DISL:1,2019-07-04T15:00:00Z,30.2513,-88.0778,2.594,19.17,11111222 
DISL,ioos:station:DISL:DISL:1,2019-07-04T15:30:00Z,30.2513,-88.0778,2.6,18.5,11111222 
DISL,ioos:station:DISL:DISL:1,2019-07-04T16:00:00Z,30.2513,-88.0778,2.644,15.73,11111222 
DISL,ioos:station:DISL:DISL:1,2019-07-04T16:30:00Z,30.2513,-88.0778,2.7,15.8,11111222 
DISL,ioos:station:DISL:DISL:1,2019-07-04T17:00:00Z,30.2513,-88.0778,2.652,15.77,11111222 
DISL,ioos:station:DISL:DISL:1,2019-07-04T17:30:00Z,30.2513,-88.0778,2.6,15.8,11111222 
DISL,ioos:station:DISL:DISL:1,2019-07-04T18:00:00Z,30.2513,-88.0778,2.644,15.84,11111222 
DISL,ioos:station:DISL:DISL:1,2019-07-04T18:30:00Z,30.2513,-88.0778,2.6,15.9,11111222 
DISL,ioos:station:DISL:DISL:1,2019-07-04T19:00:00Z,30.2513,-88.0778,2.593,16.03,11111222 
DISL,ioos:station:DISL:DISL:1,2019-07-04T19:30:00Z,30.2513,-88.0778,2.6,16.1,11111222 
DISL,ioos:station:DISL:DISL:1,2019-07-04T20:00:00Z,30.2513,-88.0778,2.524,16.14,11111222 
DISL,ioos:station:DISL:DISL:1,2019-07-04T20:30:00Z,30.2513,-88.0778,2.5,16.3,11111222 
DISL,ioos:station:DISL:DISL:1,2019-07-04T21:00:00Z,30.2513,-88.0778,2.447,16.29,11111222 
DISL,ioos:station:DISL:DISL:1,2019-07-04T21:30:00Z,30.2513,-88.0778,2.4,16.3,11111222 
DISL,ioos:station:DISL:DISL:1,2019-07-04T22:00:00Z,30.2513,-88.0778,2.373,16.4,11111222 
DISL,ioos:station:DISL:DISL:1,2019-07-04T22:30:00Z,30.2513,-88.0778,2.3,16.4,11111222 
DISL,ioos:station:DISL:DISL:1,2019-07-04T23:00:00Z,30.2513,-88.0778,2.31,16.39,11111222 
DISL,ioos:station:DISL:DISL:1,2019-07-04T23:30:00Z,30.2513,-88.0778,2.3,16.3,11111222 
DISL,ioos:station:DISL:DISL:1,2019-07-05T00:00:00Z,30.2513,-88.0778,2.247,16.33,11111222 
DISL,ioos:station:DISL:DISL:1,2019-07-05T00:30:00Z,30.2513,-88.0778,2.2,16.4,11111222 
DISL,ioos:station:DISL:DISL:1,2019-07-05T01:00:00Z,30.2513,-88.0778,2.164,16.92,11111222 
DISL,ioos:station:DISL:DISL:1,2019-07-05T01:30:00Z,30.2513,-88.0778,2.2,17.2,11111222 
DISL,ioos:station:DISL:DISL:1,2019-07-05T02:00:00Z,30.2513,-88.0778,2.131,17.34,11111222 
DISL,ioos:station:DISL:DISL:1,2019-07-05T02:30:00Z,30.2513,-88.0778,2.1,17.4,11111222 
DISL,ioos:station:DISL:DISL:1,2019-07-05T03:00:00Z,30.2513,-88.0778,2.104,17.88,11111222 
DISL,ioos:station:DISL:DISL:1,2019-07-05T03:30:00Z,30.2513,-88.0778,2.1,18.0,11111222 
DISL,ioos:station:DISL:DISL:1,2019-07-05T04:00:00Z,30.2513,-88.0778,2.067,18.14,11111222 
DISL,ioos:station:DISL:DISL:1,2019-07-05T04:30:00Z,30.2513,-88.0778,2.1,18.2,11111222 
DISL,ioos:station:DISL:DISL:1,2019-07-05T05:00:00Z,30.2513,-88.0778,2.056,18.31,11111222 
DISL,ioos:station:DISL:DISL:1,2019-07-05T05:30:00Z,30.2513,-88.0778,2.1,18.3,11111222 
DISL,ioos:station:DISL:DISL:1,2019-07-05T06:00:00Z,30.2513,-88.0778,2.079,18.3,11111222 
DISL,ioos:station:DISL:DISL:1,2019-07-05T06:30:00Z,30.2513,-88.0778,2.1,18.1,11111222 
DISL,ioos:station:DISL:DISL:1,2019-07-05T07:00:00Z,30.2513,-88.0778,2.084,18.26,11111222 
DISL,ioos:station:DISL:DISL:1,2019-07-05T07:30:00Z,30.2513,-88.0778,2.1,18.2,11111222 
DISL,ioos:station:DISL:DISL:1,2019-07-05T08:00:00Z,30.2513,-88.0778,2.135,18.2,11111222 
DISL,ioos:station:DISL:DISL:1,2019-07-05T08:30:00Z,30.2513,-88.0778,2.2,18.2,11111222 
DISL,ioos:station:DISL:DISL:1,2019-07-05T09:00:00Z,30.2513,-88.0778,2.171,17.87,11111222 
DISL,ioos:station:DISL:DISL:1,2019-07-05T09:30:00Z,30.2513,-88.0778,2.2,17.6,11111222 
DISL,ioos:station:DISL:DISL:1,2019-07-05T10:00:00Z,30.2513,-88.0778,2.218,17.08,11111222 
DISL,ioos:station:DISL:DISL:1,2019-07-05T10:30:00Z,30.2513,-88.0778,2.3,17.0,11111222 
DISL,ioos:station:DISL:DISL:1,2019-07-05T11:00:00Z,30.2513,-88.0778,2.305,16.9,11111222 
DISL,ioos:station:DISL:DISL:1,2019-07-05T11:30:00Z,30.2513,-88.0778,2.3,16.8,11111222 
DISL,ioos:station:DISL:DISL:1,2019-07-05T12:00:00Z,30.2513,-88.0778,2.371,16.78,11111222 
DISL,ioos:station:DISL:DISL:1,2019-07-05T12:30:00Z,30.2513,-88.0778,2.4,16.7,11111222 
DISL,ioos:station:DISL:DISL:1,2019-07-05T13:00:00Z,30.2513,-88.0778,2.438,22.26,11111222 
DISL,ioos:station:DISL:DISL:1,2019-07-05T13:30:00Z,30.2513,-88.0778,2.5,23.1,11111222 
DISL,ioos:station:DISL:DISL:1,2019-07-05T14:00:00Z,30.2513,-88.0778,2.477,23.31,11111222 
DISL,ioos:station:DISL:DISL:1,2019-07-05T14:30:00Z,30.2513,-88.0778,2.5,21.6,11111222 
DISL,ioos:station:DISL:DISL:1,2019-07-05T15:00:00Z,30.2513,-88.0778,2.536,22.61,11111222 
DISL,ioos:station:DISL:DISL:1,2019-07-05T15:30:00Z,30.2513,-88.0778,2.6,22.6,11111222 
DISL,ioos:station:DISL:DISL:1,2019-07-05T16:00:00Z,30.2513,-88.0778,2.592,19.77,11111222 
DISL,ioos:station:DISL:DISL:1,2019-07-05T16:30:00Z,30.2513,-88.0778,2.6,19.8,11111222 
DISL,ioos:station:DISL:DISL:1,2019-07-05T17:00:00Z,30.2513,-88.0778,2.62,20.54,11111222 
DISL,ioos:station:DISL:DISL:1,2019-07-05T17:30:00Z,30.2513,-88.0778,2.621,18.72,11111222 
DISL,ioos:station:DISL:DISL:1,2019-07-05T18:00:00Z,30.2513,-88.0778,2.6,17.9,11111222 
DISL,ioos:station:DISL:DISL:1,2019-07-05T18:30:00Z,30.2513,-88.0778,2.7,17.1,11111222 
DISL,ioos:station:DISL:DISL:1,2019-07-05T19:00:00Z,30.2513,-88.0778,2.6,17.1,11111222 
DISL,ioos:station:DISL:DISL:1,2019-07-05T19:30:00Z,30.2513,-88.0778,2.6,17.2,11111222 
DISL,ioos:station:DISL:DISL:1,2019-07-05T20:00:00Z,30.2513,-88.0778,2.562,17.16,11111222 
DISL,ioos:station:DISL:DISL:1,2019-07-05T20:30:00Z,30.2513,-88.0778,2.6,17.2,11111222 
DISL,ioos:station:DISL:DISL:1,2019-07-05T21:00:00Z,30.2513,-88.0778,2.522,17.15,11111222 
DISL,ioos:station:DISL:DISL:1,2019-07-05T21:30:00Z,30.2513,-88.0778,2.5,17.2,11111222 
DISL,ioos:station:DISL:DISL:1,2019-07-05T22:00:00Z,30.2513,-88.0778,2.443,17.2,11111222 
DISL,ioos:station:DISL:DISL:1,2019-07-05T22:30:00Z,30.2513,-88.0778,2.4,17.2,11111222 
DISL,ioos:station:DISL:DISL:1,2019-07-05T23:00:00Z,30.2513,-88.0778,2.373,17.23,11111222 
DISL,ioos:station:DISL:DISL:1,2019-07-05T23:30:00Z,30.2513,-88.0778,2.3,17.2,11111222 
DISL,ioos:station:DISL:DISL:1,2019-07-06T00:00:00Z,30.2513,-88.0778,2.31,17.26,11111222 
DISL,ioos:station:DISL:DISL:1,2019-07-06T00:30:00Z,30.2513,-88.0778,2.3,16.5,11111222 
DISL,ioos:station:DISL:DISL:1,2019-07-06T01:00:00Z,30.2513,-88.0778,2.246,16.18,11111222 
DISL,ioos:station:DISL:DISL:1,2019-07-06T01:30:00Z,30.2513,-88.0778,2.2,16.3,11111222 
DISL,ioos:station:DISL:DISL:1,2019-07-06T02:00:00Z,30.2513,-88.0778,2.177,16.53,11111222 
DISL,ioos:station:DISL:DISL:1,2019-07-06T02:30:00Z,30.2513,-88.0778,2.2,17.2,11111222 
DISL,ioos:station:DISL:DISL:1,2019-07-06T03:00:00Z,30.2513,-88.0778,2.155,17.5,11111222 
DISL,ioos:station:DISL:DISL:1,2019-07-06T03:30:00Z,30.2513,-88.0778,2.2,17.8,11111222 
DISL,ioos:station:DISL:DISL:1,2019-07-06T04:00:00Z,30.2513,-88.0778,2.131,17.99,11111222 
DISL,ioos:station:DISL:DISL:1,2019-07-06T04:30:00Z,30.2513,-88.0778,2.1,18.1,11111222 
DISL,ioos:station:DISL:DISL:1,2019-07-06T05:00:00Z,30.2513,-88.0778,2.095,17.98,11111222 
DISL,ioos:station:DISL:DISL:1,2019-07-06T05:30:00Z,30.2513,-88.0778,2.1,17.7,11111222 
DISL,ioos:station:DISL:DISL:1,2019-07-06T06:00:00Z,30.2513,-88.0778,2.101,17.09,11111222 
DISL,ioos:station:DISL:DISL:1,2019-07-06T06:30:00Z,30.2513,-88.0778,2.1,17.4,11111222 
DISL,ioos:station:DISL:DISL:1,2019-07-06T07:00:00Z,30.2513,-88.0778,2.113,17.42,11111222 
DISL,ioos:station:DISL:DISL:1,2019-07-06T07:30:00Z,30.2513,-88.0778,2.1,17.5,11111222 
DISL,ioos:station:DISL:DISL:1,2019-07-06T08:00:00Z,30.2513,-88.0778,2.139,17.57,11111222 
DISL,ioos:station:DISL:DISL:1,2019-07-06T08:30:00Z,30.2513,-88.0778,2.2,19.1,11111222 
DISL,ioos:station:DISL:DISL:1,2019-07-06T09:00:00Z,30.2513,-88.0778,2.166,18.02,11111222 
DISL,ioos:station:DISL:DISL:1,2019-07-06T09:30:00Z,30.2513,-88.0778,2.2,17.8,11111222 
DISL,ioos:station:DISL:DISL:1,2019-07-06T10:00:00Z,30.2513,-88.0778,2.225,17.36,11111222 
DISL,ioos:station:DISL:DISL:1,2019-07-06T10:30:00Z,30.2513,-88.0778,2.2,17.2,11111222 
DISL,ioos:station:DISL:DISL:1,2019-07-06T11:00:00Z,30.2513,-88.0778,2.269,17.19,11111222 
DISL,ioos:station:DISL:DISL:1,2019-07-06T11:30:00Z,30.2513,-88.0778,2.3,17.2,11111222 
DISL,ioos:station:DISL:DISL:1,2019-07-06T12:00:00Z,30.2513,-88.0778,2.315,17.22,11111222 
DISL,ioos:station:DISL:DISL:1,2019-07-06T12:30:00Z,30.2513,-88.0778,2.4,17.2,11111222 
DISL,ioos:station:DISL:DISL:1,2019-07-06T13:00:00Z,30.2513,-88.0778,2.376,17.23,11111222 
DISL,ioos:station:DISL:DISL:1,2019-07-06T13:30:00Z,30.2513,-88.0778,2.4,17.3,11111222 
DISL,ioos:station:DISL:DISL:1,2019-07-06T14:00:00Z,30.2513,-88.0778,2.432,18.14,11111222 
DISL,ioos:station:DISL:DISL:1,2019-07-06T14:30:00Z,30.2513,-88.0778,2.5,20.5,11111222 